{"data":{"norad_id":67150,"epoch":"2026-05-25T04:26:41.135712Z","epoch_age_seconds":52835,"freshness":"FRESH","line1":"1 67150U 25301T   26145.18519833  .00002876  00000+0  40590-3 0  9999","line2":"2 67150  51.9024 104.8831 0000804  58.3535 301.7506 14.79956927 24814","mean_motion":14.79956927,"eccentricity":8.04e-5,"inclination_deg":51.9024,"raan_deg":104.8831,"arg_perigee_deg":58.3535,"mean_anomaly_deg":301.7506,"bstar":0.0004059,"rev_number":2481,"period_min":97.30012905977,"perigee_km":628.89668777602,"apogee_km":630.02350938947,"semimajor_km":7007.5970985827,"source":"CELESTRAK","updated_at":"2026-05-25T13:38:06.777657Z"}}